Flag for India Weather past 2 weeks in Jalandhar, Punjab, India

Now
64 °F

Thundershowers. Partly cloudy.


Feels Like: 64 °F
Forecast: 64 / 82 °F
Wind: 12 mph from Northeast

Location: Lahore Airport

Current Time: Mar 30, 2015 at 1:34:43 AM

Latest Report: Mar 30, 2015 at 12:55 AM


Visibility: 2 mi

Pressure: 29.83 "Hg

Humidity: 78%

Dew point: 57 °F

Location of JalandharLocation

Historic Weather in Jalandhar — Graph

°F

Jalandhar temperature yesterday

Maximum temperature yesterday: 77 °F (at 1:25 PM)
Minimum temperature yesterday: 66 °F (at 3:55 AM)
Average temperature yesterday: 70 °F

Past Weeks' High & Low Weather Summary

 TemperatureHumidityPressure
High95 °F (Mar 28, 3:30 PM)100% (Mar 15, 8:55 PM)30.15 "Hg (Mar 15, 8:55 PM)
Low54 °F (Mar 17, 5:00 AM)23% (Mar 23, 3:55 PM)29.74 "Hg (Mar 28, 5:30 PM)
Average74 °F58%29.95 "Hg
* Reported Mar 15 12:25 AM — Mar 30 12:25 AM, Jalandhar, Weather by CustomWeather, © 2015

Note: Actual official high and low records may vary slightly from our data, if they occured in-between our weather recording intervals... More about our weather records

Advertising

Jalandhar weather history for previous 24 hours

 ConditionsComfort  
Time TempWeatherWind HumidityBarometerVisibility
12:25 AM
Mon, Mar 30
64 °FThundershowers. Partly cloudy.9 mph83%29.80 "Hg2 mi
11:55 PM
Sun, Mar 29
66 °FThundershowers. Partly cloudy.13 mph73%29.80 "Hg2 mi
11:25 PM66 °FThundershowers. Partly cloudy.10 mph73%29.80 "Hg2 mi
10:55 PM66 °FThundershowers. Partly cloudy.3 mph78%29.77 "Hg2 mi
10:25 PM66 °FPartly cloudy.6 mph78%29.77 "Hg2 mi
9:55 PM68 °FThundershowers. Partly cloudy.8 mph73%29.80 "Hg2 mi
9:25 PM68 °FThundershowers. Partly cloudy.9 mph73%29.80 "Hg2 mi
9:00 PM68 °FThundershowers. Partly cloudy.6 mph73%29.77 "Hg3 mi
8:25 PM68 °FThundershowers. Partly cloudy.8 mph73%29.77 "Hg3 mi
7:55 PM68 °FPartly cloudy.9 mph73%29.77 "Hg3 mi
7:25 PM68 °FPartly cloudy.9 mph73%29.77 "Hg3 mi
6:55 PM70 °FPartly cloudy.12 mph69%29.77 "Hg3 mi
6:25 PM70 °FBroken clouds.13 mph69%29.74 "Hg3 mi
5:55 PM72 °FBroken clouds.17 mph65%29.74 "Hg3 mi
5:25 PM72 °FBroken clouds.16 mph65%29.74 "Hg3 mi
4:55 PM73 °FBroken clouds.20 mph61%29.74 "Hg3 mi
4:25 PM73 °FBroken clouds.21 mph61%29.77 "Hg3 mi
3:55 PM77 °FBroken clouds.21 mph57%29.77 "Hg3 mi
3:25 PM77 °FBroken clouds.18 mph57%29.77 "Hg3 mi
2:55 PM77 °FBroken clouds.18 mph57%29.77 "Hg4 mi
2:25 PM77 °FBroken clouds.17 mph57%29.77 "Hg4 mi
1:55 PM77 °FBroken clouds.12 mph57%29.77 "Hg4 mi
1:25 PM77 °FBroken clouds.10 mph57%29.80 "Hg4 mi
1:00 PM75 °FScattered clouds.12 mph61%29.77 "Hg4 mi
12:25 PM75 °FBroken clouds.12 mph61%29.80 "Hg4 mi
12:00 PM73 °FBroken clouds.13 mph65%29.80 "Hg4 mi
11:25 AM72 °FBroken clouds.14 mph69%29.80 "Hg4 mi
10:55 AM72 °FBroken clouds.10 mph69%29.83 "Hg4 mi
10:25 AM70 °FBroken clouds.20 mph73%29.80 "Hg4 mi
9:55 AM68 °FBroken clouds.22 mph83%29.80 "Hg2 mi
9:25 AM68 °FThunderstorms. Broken clouds.15 mph83%29.86 "Hg1 mi
8:55 AM68 °FLight rain. Broken clouds.17 mph73%29.86 "Hg2 mi
8:25 AM68 °FRain. Scattered clouds.16 mph73%29.83 "Hg2 mi
7:55 AM68 °FBroken clouds.9 mph73%29.83 "Hg3 mi
7:25 AM68 °FBroken clouds.9 mph73%29.80 "Hg3 mi
5:25 AM66 °FPartly cloudy.14 mph83%29.77 "Hg2 mi
4:55 AM66 °FPartly cloudy.9 mph83%29.77 "Hg2 mi
4:25 AM66 °FPartly cloudy.9 mph83%29.74 "Hg2 mi
3:55 AM66 °FThundershowers. Partly cloudy.13 mph83%29.74 "Hg2 mi
2:25 AM68 °FThunderstorms. Partly cloudy.13 mph73%29.77 "Hg2 mi
1:55 AM68 °FThunderstorms. Partly cloudy.17 mph73%29.80 "Hg2 mi
1:25 AM68 °FThunderstorms. Partly cloudy.21 mph73%29.80 "Hg2 mi
Weather by CustomWeather, © 2015

See weather overviewHow to use our weather pages